Weather History for Guymon, OK

Change the Weather History Date:

Wednesday, March 5, 2014

  Actual Average Record
Temperature  
Mean Temperature 40 °F 43 °F  
Max Temperature 50 °F 58 °F 82 °F (2009)
Min Temperature 29 °F 28 °F 15 °F (2003)
Degree Days  
Heating Degree Days 25 22  
Month to date heating degree days 186 113  
Since 1 July heating degree days 3752 3580  
Cooling Degree Days 0 0  
Month to date cooling degree days 0 0  
Year to date cooling degree days 0 0  
Moisture  
Dew Point 30 °F    
Average Humidity 67    
Maximum Humidity 92    
Minimum Humidity 42    
Precipitation  
Precipitation 0.03 in 0.04 in 0.03 in (2014)
Month to date precipitation 0.21 0.17  
Year to date precipitation 0.55 1.04  
Snow  
Snow 0.00 in - - ()
Month to date snowfall 1.5  
Since 1 July snowfall 14.2  
Snow Depth 0.00 in    
Sea Level Pressure  
Sea Level Pressure 30.10 in    
Wind  
Wind Speed 12 mph (NNE)    
Max Wind Speed 33 mph    
Max Gust Speed 40 mph    
Visibility 8 miles    
Events Snow    
T = Trace of Precipitation, MM = Missing Value Source: NWS Daily Summary

Daily Weather History Graph

Daily Weather History Graph

Search for Another Location

Airport:

Trip Planner

Search our weather history database for the weather conditions in past years. The results will help you decide how hot, cold, wet, or windy it might be!

Date:

Astronomy

Mar. 05, 2014 Rise Set
Actual Time 7:11 AM CST 6:44 PM CST
Civil Twilight 6:45 AM CST 7:10 PM CST
Nautical Twilight 6:15 AM CST 7:40 PM CST
Astronomical Twilight 5:45 AM CST 8:10 PM CST
Moon 9:46 AM CST (3/5) 11:46 PM CST (3/5)
Length of Visible Light 12h 24m
Length of Day
11h 33m
Waxing Crescent, 23% of the Moon is Illuminated
Mar 5
Waxing Crescent
Mar 8
First Quarter
Mar 16
Full
Mar 23
Last Quarter
Mar 30
New

Hourly Weather History & Observations

Time (CST) Temp. Windchill Dew Point Humidity Pressure Visibility Wind Dir Wind Speed Gust Speed Precip Events Conditions
12:53 AM 43.0 °F 37.7 °F 24.1 °F 47% 29.76 in 10.0 mi SSE 9.2 mph - N/A   Clear
1:53 AM 42.1 °F 37.7 °F 24.1 °F 49% 29.76 in 10.0 mi SSE 6.9 mph - N/A   Clear
2:53 AM 41.0 °F - 25.0 °F 53% 29.77 in 10.0 mi Calm Calm - N/A   Clear
3:53 AM 41.0 °F 33.5 °F 26.1 °F 55% 29.81 in 10.0 mi NNE 13.8 mph - N/A   Mostly Cloudy
4:53 AM 36.0 °F 25.6 °F 28.0 °F 73% 29.90 in 10.0 mi North 18.4 mph 23.0 mph N/A   Clear
5:48 AM 35.6 °F 23.2 °F 30.2 °F 81% 29.98 in 10.0 mi North 26.5 mph 31.1 mph N/A   Overcast
5:53 AM 34.0 °F 21.8 °F 28.9 °F 82% 29.96 in 10.0 mi North 23.0 mph 33.4 mph N/A   Overcast
6:53 AM 33.1 °F 20.3 °F 28.0 °F 82% 30.00 in 10.0 mi North 24.2 mph 34.5 mph N/A   Overcast
7:53 AM 32.0 °F 20.8 °F 27.0 °F 82% 30.06 in 10.0 mi North 17.3 mph - N/A   Overcast
8:53 AM 32.0 °F 22.5 °F 27.0 °F 82% 30.11 in 2.5 mi North 12.7 mph - 0.00 in Snow Light Snow
9:03 AM 32.0 °F 22.1 °F 28.0 °F 85% 30.11 in 1.5 mi North 13.8 mph - 0.01 in Snow Light Snow
9:14 AM 32.0 °F 21.2 °F 27.0 °F 82% 30.11 in 2.5 mi North 16.1 mph - 0.01 in Snow Light Snow
9:21 AM 30.9 °F 20.7 °F 27.0 °F 85% 30.11 in 4.0 mi NNE 13.8 mph - 0.01 in Snow Light Snow
9:43 AM 32.0 °F 20.8 °F 28.0 °F 85% 30.14 in 3.0 mi North 17.3 mph - 0.03 in Snow Light Snow
9:53 AM 32.0 °F 21.6 °F 28.0 °F 85% 30.14 in 5.0 mi North 15.0 mph - 0.03 in Snow Light Snow
10:22 AM 32.0 °F 23.0 °F 28.9 °F 88% 30.16 in 1.8 mi North 11.5 mph - 0.00 in Snow Light Snow
10:42 AM 32.0 °F 22.1 °F 28.9 °F 88% 30.16 in 3.0 mi North 13.8 mph - 0.00 in Snow Light Snow
10:53 AM 32.0 °F 21.2 °F 28.9 °F 88% 30.17 in 3.0 mi North 16.1 mph - 0.00 in Snow Light Snow
11:31 AM 33.1 °F 23.4 °F 30.0 °F 89% 30.17 in 10.0 mi North 13.8 mph - 0.00 in   Overcast
11:53 AM 34.0 °F 24.6 °F 30.9 °F 89% 30.17 in 9.0 mi North 13.8 mph - 0.00 in   Overcast
12:30 PM 37.0 °F 28.1 °F 33.1 °F 86% 30.17 in 10.0 mi NNE 15.0 mph - N/A   Overcast
12:53 PM 39.0 °F 30.6 °F 34.0 °F 82% 30.16 in 10.0 mi North 15.0 mph - N/A   Overcast
1:40 PM 41.0 °F 33.5 °F 35.1 °F 79% 30.15 in 10.0 mi NNE 13.8 mph - N/A   Overcast
1:53 PM 42.1 °F 35.2 °F 35.1 °F 76% 30.14 in 10.0 mi NNE 12.7 mph - N/A   Overcast
2:53 PM 46.9 °F - 35.1 °F 63% 30.12 in 10.0 mi NNE 11.5 mph - N/A   Scattered Clouds
3:53 PM 48.9 °F - 35.1 °F 59% 30.11 in 10.0 mi NE 11.5 mph - N/A   Clear
4:53 PM 50.0 °F - 34.0 °F 54% 30.12 in 10.0 mi NE 9.2 mph - N/A   Clear
5:53 PM 46.9 °F - 34.0 °F 61% 30.14 in 10.0 mi NE 9.2 mph - N/A   Clear
6:53 PM 41.0 °F 37.1 °F 34.0 °F 76% 30.18 in 10.0 mi East 5.8 mph - N/A   Clear
7:53 PM 37.0 °F 32.4 °F 32.0 °F 82% 30.20 in 10.0 mi ESE 5.8 mph - N/A   Clear
8:53 PM 35.1 °F 29.3 °F 30.9 °F 85% 30.22 in 10.0 mi South 6.9 mph - N/A   Clear
9:53 PM 32.0 °F 28.7 °F 28.9 °F 88% 30.23 in 10.0 mi SE 3.5 mph - N/A   Clear
10:53 PM 28.9 °F 18.6 °F 27.0 °F 92% 30.25 in 6.0 mi WSW 12.7 mph - N/A   Clear
11:15 PM 28.9 °F 21.9 °F 28.0 °F 96% 30.21 in 6.0 mi SW 6.9 mph - N/A   Partly Cloudy
11:28 PM 30.9 °F 26.2 °F 30.0 °F 96% 30.21 in 6.0 mi SW 4.6 mph - N/A   Mostly Cloudy
11:45 PM 30.0 °F 22.4 °F 28.9 °F 96% 30.21 in 8.0 mi SW 8.1 mph - N/A   Scattered Clouds
11:53 PM 30.0 °F 25.2 °F 28.0 °F 92% 30.24 in 8.0 mi South 4.6 mph - N/A   Partly Cloudy